Tracking 29892 objects as of 21-Nov-2024
HD Live streaming from Space Station
objects crossing your sky now

STARLINK-31523

Track STARLINK-31523 now!
10-day predictions
STARLINK-31523 is classified as:


NORAD ID: 59220
Int'l Code: 2024-046V
Perigee: 481.3 km
Apogee: 483.4 km
Inclination: 53.2 °
Period: 94.1 minutes
Semi major axis: 6853 km
RCS: Unknown
Launch date: March 11, 2024
Source: United States (US)
Launch site: AIR FORCE WESTERN TEST RANGE (AFWTR)
Your satellite tracking list
Your tracking list is empty




NASA's NSSDC Master Catalog

Two Line Element Set (TLE):
1 59220U 24046V   24325.07540837  .00000285  00000-0  21754-4 0  9992
2 59220  53.1579 199.8989 0001590  92.0924 268.0259 15.30200995 40374
Source of the keplerian elements: AFSPC